Wind_Speed
18 19 20 20 20 19 19 19 19 18 18 18 18 18 19 20 20 20 20 20 21 20 21 22 22 22 22 22 23 24 24 24 23 22 22 22 22 23 23 24 24 24 25
19 19 20 20 20 20 19 20 19 18 18 19 19 19 19 20 21 21 20 21 20 21 21 22 23 23 23 24 24 24 24 23 23 23 23 23 23 24 23 24 23 24 24
20 20 20 20 21 20 20 20 20 19 18 18 19 19 20 20 20 21 21 22 22 22 22 21 22 23 24 24 24 24 23 23 23 24 23 23 22 23 23 23 23 23 24
22 21 20 20 20 20 20 21 20 20 19 19 18 19 20 20 20 20 21 22 21 21 20 21 22 23 23 23 23 23 22 22 23 23 22 22 22 22 22 23 24 24 23
23 23 21 20 20 21 21 21 21 21 19 19 19 20 19 19 19 19 20 21 21 21 20 21 23 23 23 23 23 23 22 22 22 23 23 22 22 22 22 22 23 24 24
22 22 20 21 22 21 21 21 21 21 20 19 19 19 19 19 20 20 21 21 21 21 20 21 22 22 22 21 22 22 22 22 22 23 23 22 23 23 22 22 23 23 24
22 21 20 21 20 20 21 21 21 21 20 20 20 19 20 20 21 21 22 21 21 21 21 21 21 21 21 21 21 21 22 22 22 22 23 23 23 23 23 22 22 23 24
22 22 22 21 20 20 20 21 21 21 21 21 21 21 22 21 21 22 21 21 20 20 21 22 21 21 20 21 22 22 22 22 22 23 23 24 23 23 23 24 23 24 24
20 20 20 20 21 21 19 19 20 21 20 21 22 22 22 21 21 21 21 21 20 19 20 21 22 21 21 21 22 22 22 23 23 23 23 23 23 23 24 24 24 23 23
21 20 19 19 20 18 17 18 19 20 20 21 21 22 23 22 20 20 20 21 20 20 20 21 21 21 22 23 23 22 23 23 23 22 22 23 23 24 24 24 24 23 22
21 22 21 21 20 18 17 18 18 19 20 20 21 22 22 20 19 19 19 18 19 19 20 20 20 21 22 23 22 22 22 23 22 22 22 22 23 23 24 23 22 22 22
21 21 20 19 19 18 16 16 17 18 19 20 20 20 19 18 17 17 17 17 18 19 19 19 20 21 21 21 21 22 22 23 23 23 22 22 22 23 23 23 23 23 23
19 18 18 18 18 17 16 16 16 17 18 18 18 17 18 17 17 16 16 17 18 18 19 19 20 20 20 20 20 22 23 23 23 23 22 22 23 23 23 23 23 23 23
18 17 17 17 17 17 16 15 14 15 16 16 16 17 16 16 16 16 16 17 17 18 19 20 20 20 20 20 21 22 23 22 22 22 22 23 23 23 24 24 23 23 23
15 15 15 15 15 15 15 13 13 13 14 15 15 16 15 15 15 15 16 17 17 17 19 20 20 20 20 20 21 22 22 21 22 22 23 23 24 24 24 23 23 23 23
14 14 13 13 13 13 14 13 12 12 13 13 14 15 15 15 15 15 16 17 17 17 18 19 19 19 20 21 21 21 21 21 22 22 23 24 24 24 23 23 22 22 22
14 13 12 11 11 12 12 11 12 13 13 13 13 14 14 13 13 15 16 16 16 17 18 19 18 19 20 20 21 21 21 22 22 23 24 24 24 23 23 22 22 22 22
13 12 12 11 10 10 11 12 12 12 12 12 13 13 13 12 13 14 15 16 17 18 18 18 18 18 19 20 21 21 22 23 23 23 24 24 23 22 21 21 22 23 23
11 10 10 10 10 10 11 12 11 11 11 12 12 12 13 13 14 15 15 16 17 17 17 17 18 18 19 20 21 22 22 23 23 23 24 24 23 22 22 23 23 23 23
9 9 9 10 10 10 10 10 11 11 11 11 11 11 12 13 14 15 15 16 16 16 17 18 19 19 20 21 22 22 22 23 23 23 24 23 23 23 23 23 23 22 22
9 9 9 9 10 9 10 10 10 10 10 11 11 12 12 13 14 15 16 16 16 16 17 18 19 20 20 21 21 22 22 22 23 23 23 23 23 24 24 23 23 22 22
8 8 9 10 9 9 10 9 9 10 11 11 11 12 13 14 15 15 16 16 16 17 18 18 19 20 21 21 21 22 22 22 22 23 23 23 23 24 23 23 23 22 21
9 9 9 9 9 9 9 9 10 10 11 11 12 13 13 14 14 15 16 16 16 17 18 19 20 20 21 21 21 22 23 23 23 23 24 24 24 24 23 23 23 22 21
9 9 9 8 8 8 8 9 10 10 11 12 12 13 14 14 14 14 15 16 17 17 18 20 20 21 20 21 22 22 23 23 24 24 25 25 24 24 23 23 23 22 21
8 9 8 8 8 8 8 9 10 11 11 11 12 13 13 13 14 14 15 16 17 18 19 20 21 21 21 22 22 23 23 23 24 24 25 25 24 23 23 22 22 21 21
8 8 7 8 8 8 8 9 10 10 11 11 12 12 13 13 13 14 15 16 17 17 18 20 20 21 21 22 23 23 23 23 24 24 25 25 24 23 22 22 21 21 20
Wind_Direction
287 293 294 297 301 300 297 295 293 294 292 290 289 289 291 292 292 294 294 293 296 297 298 297 298 298 297 297 295 293 293 293 292 290 286 284 283 282 281 280 279 276 272
287 292 294 297 298 298 297 294 294 294 292 290 289 290 294 295 295 295 296 297 298 298 299 300 300 299 298 297 295 294 293 291 290 289 288 287 286 285 284 282 281 280 277
288 289 293 293 295 296 295 294 293 292 290 290 291 295 298 299 298 297 296 299 298 297 296 298 299 299 299 298 296 292 292 291 290 288 288 287 286 285 283 282 281 280 280
288 289 289 290 290 292 291 291 291 291 291 289 290 293 296 297 298 299 299 299 299 297 298 299 301 302 301 300 298 295 292 291 290 289 287 287 286 286 283 281 281 280 279
291 288 289 287 288 292 289 288 289 291 286 287 289 292 293 295 296 299 301 302 300 297 300 302 305 304 301 298 296 295 292 292 291 289 288 287 287 286 284 282 280 279 279
292 292 291 290 291 292 290 289 289 289 288 287 291 292 292 295 297 298 299 299 299 300 303 304 306 305 303 298 296 293 294 295 294 292 290 289 288 288 286 283 280 279 278
292 294 296 296 293 292 291 288 288 287 292 293 292 291 293 294 297 297 297 297 299 301 303 307 307 305 304 301 300 299 298 297 295 294 293 292 290 288 286 283 282 281 278
289 290 292 294 293 292 290 288 287 289 291 293 291 295 294 293 296 296 297 298 300 301 303 306 307 306 303 300 299 299 300 299 297 296 295 293 292 290 289 288 286 283 279
291 292 292 292 292 292 290 286 284 287 289 292 293 294 296 293 295 296 297 297 297 300 303 305 307 307 306 303 300 301 301 301 299 297 295 295 294 293 292 292 290 286 282
294 291 292 290 291 290 288 286 286 289 290 292 295 295 297 293 294 296 296 298 297 300 305 306 307 307 307 307 304 303 302 300 301 299 297 298 297 295 294 293 292 289 286
292 291 290 292 290 289 290 286 288 288 290 292 294 295 297 301 298 297 298 298 299 303 304 305 307 308 309 309 308 305 304 303 304 303 302 299 298 296 294 295 294 292 290
289 289 289 290 291 289 287 286 286 288 291 294 294 296 298 301 300 301 300 301 302 304 305 306 309 310 311 312 312 308 307 307 306 305 305 302 299 297 297 296 294 293 293
288 288 288 291 292 289 287 287 288 289 292 296 298 298 298 299 300 300 300 303 304 306 307 310 311 312 312 313 313 313 312 311 309 307 305 304 302 298 298 296 295 294 294
291 290 292 295 296 293 292 291 291 291 294 299 302 301 297 299 300 299 302 304 305 307 309 312 314 315 314 314 315 317 315 312 312 309 306 305 305 302 299 298 297 295 294
294 293 293 296 294 295 297 293 297 300 300 304 305 306 300 300 301 302 305 305 306 309 311 312 314 315 314 316 317 317 316 312 311 310 308 306 305 304 301 299 297 295 294
296 296 299 305 302 301 306 303 302 305 305 308 311 310 307 305 307 309 308 308 308 310 311 313 314 315 316 318 319 317 315 314 313 312 311 309 307 307 303 301 299 297 294
302 298 298 305 308 309 312 311 317 315 313 314 314 313 312 309 310 311 311 311 311 312 312 314 317 318 318 318 319 319 316 316 315 314 314 312 309 309 307 304 301 299 297
301 304 304 306 311 314 315 317 320 319 316 318 318 318 317 314 314 314 314 314 315 315 316 317 318 320 322 321 320 319 318 317 316 315 315 315 314 313 310 307 305 301 299
303 309 311 313 317 320 318 316 318 321 319 325 325 322 322 320 322 321 320 319 319 320 321 321 322 323 322 322 320 320 319 318 316 315 315 316 316 314 311 309 307 303 299
299 308 314 316 317 320 321 320 322 325 327 329 330 331 329 326 324 325 325 324 324 324 325 325 326 325 324 323 323 324 323 321 320 319 319 318 316 318 316 313 309 304 301
297 306 309 310 314 317 317 320 321 325 326 327 330 331 332 332 331 329 326 326 327 329 329 328 328 328 327 326 327 327 326 324 323 323 322 320 317 318 318 316 312 308 305
295 299 302 305 312 315 315 318 319 321 322 324 327 330 332 332 332 331 329 329 331 332 331 330 329 330 331 331 330 329 328 327 325 325 323 321 319 320 321 318 316 312 308
299 300 300 306 313 314 313 317 320 322 323 325 328 330 331 331 332 331 330 330 331 331 332 332 332 332 332 332 331 330 330 329 328 327 326 323 322 322 321 319 317 315 311
300 300 299 305 309 308 309 315 322 324 324 326 328 329 331 331 331 330 330 330 331 332 333 335 335 335 335 334 333 333 332 332 331 330 330 327 324 322 320 320 319 317 315
294 296 296 298 299 299 304 312 320 323 326 327 328 328 330 332 333 332 331 333 335 336 336 337 337 337 336 335 335 336 335 333 334 335 334 333 330 327 325 324 324 322 320
289 291 292 296 296 297 304 312 318 321 325 328 329 331 333 333 334 335 335 336 337 338 339 340 340 340 339 338 338 338 337 336 335 335 335 334 333 329 328 327 325 323 321
Height
5841 5840 5839 5837 5836 5834 5833 5831 5829 5828 5827 5826 5825 5824 5822 5820 5819 5817 5815 5813 5811 5809 5807 5804 5802 5799 5797 5794 5792 5790 5787 5786 5783 5782 5780 5778 5777 5775 5774 5772 5771 5770 5769
5838 5836 5835 5833 5832 5830 5829 5827 5825 5824 5823 5822 5821 5819 5818 5816 5814 5812 5811 5808 5806 5803 5801 5798 5796 5794 5792 5789 5785 5783 5781 5779 5777 5776 5774 5772 5771 5769 5767 5766 5764 5763 5762
5833 5831 5830 5829 5828 5825 5824 5823 5822 5820 5819 5818 5816 5815 5813 5811 5810 5808 5806 5803 5801 5798 5795 5792 5790 5788 5785 5782 5779 5776 5775 5773 5771 5769 5768 5766 5765 5763 5761 5759 5758 5756 5755
5827 5825 5824 5823 5822 5821 5819 5818 5817 5816 5814 5813 5812 5811 5809 5807 5805 5803 5800 5798 5795 5793 5790 5787 5784 5781 5779 5776 5773 5771 5769 5767 5765 5763 5761 5760 5758 5756 5755 5753 5751 5749 5748
5821 5821 5819 5818 5817 5816 5814 5814 5812 5811 5809 5808 5806 5805 5803 5802 5800 5798 5795 5793 5790 5787 5785 5782 5779 5776 5773 5770 5768 5765 5763 5761 5759 5757 5755 5753 5751 5749 5748 5747 5744 5742 5741
5816 5815 5814 5813 5812 5811 5809 5808 5807 5806 5804 5802 5801 5799 5798 5797 5795 5793 5790 5787 5785 5782 5779 5776 5773 5771 5767 5764 5762 5759 5757 5755 5753 5751 5748 5746 5745 5743 5741 5739 5738 5736 5734
5811 5810 5808 5807 5806 5805 5804 5803 5801 5800 5799 5797 5796 5794 5793 5791 5789 5787 5785 5782 5779 5776 5774 5771 5768 5766 5762 5759 5756 5754 5751 5749 5747 5745 5742 5740 5738 5736 5734 5732 5730 5729 5727
5807 5805 5803 5802 5800 5798 5798 5797 5796 5795 5794 5792 5790 5789 5788 5786 5784 5781 5778 5776 5774 5771 5769 5766 5763 5760 5757 5754 5751 5748 5746 5743 5741 5739 5736 5734 5731 5729 5727 5725 5723 5721 5719
5801 5800 5798 5796 5794 5793 5792 5791 5790 5789 5788 5787 5785 5783 5781 5779 5777 5775 5773 5771 5768 5766 5764 5761 5757 5755 5752 5749 5746 5743 5740 5737 5735 5732 5730 5727 5725 5722 5720 5718 5715 5714 5712
5796 5793 5791 5790 5789 5787 5786 5785 5784 5783 5782 5781 5779 5777 5775 5772 5770 5769 5767 5765 5763 5761 5758 5755 5752 5749 5747 5743 5740 5737 5734 5732 5729 5726 5724 5721 5718 5716 5713 5711 5708 5706 5704
5790 5788 5786 5785 5783 5782 5781 5780 5779 5778 5776 5775 5773 5771 5769 5765 5764 5763 5761 5759 5757 5755 5752 5750 5747 5744 5741 5738 5734 5731 5729 5726 5723 5720 5718 5715 5712 5710 5707 5704 5701 5699 5697
5784 5782 5781 5779 5778 5776 5776 5775 5773 5772 5771 5769 5767 5765 5764 5762 5760 5758 5756 5754 5752 5749 5747 5744 5742 5739 5736 5732 5729 5726 5723 5720 5717 5714 5712 5709 5706 5703 5701 5698 5695 5693 5690
5779 5778 5776 5775 5773 5772 5771 5770 5768 5767 5765 5764 5761 5760 5759 5757 5755 5753 5751 5749 5747 5745 5742 5740 5737 5734 5731 5727 5724 5721 5718 5715 5711 5708 5706 5703 5700 5697 5694 5691 5688 5686 5683
5775 5774 5772 5770 5769 5768 5766 5765 5763 5762 5761 5759 5757 5755 5754 5752 5750 5748 5746 5744 5742 5740 5738 5735 5732 5729 5726 5723 5719 5716 5713 5710 5706 5702 5700 5697 5694 5691 5688 5684 5682 5679 5676
5770 5769 5768 5766 5765 5764 5762 5760 5759 5758 5757 5755 5753 5751 5749 5747 5746 5744 5742 5740 5738 5736 5733 5731 5728 5724 5721 5718 5715 5711 5708 5705 5701 5698 5694 5691 5687 5684 5681 5677 5675 5672 5669
5766 5765 5764 5762 5761 5760 5759 5757 5756 5754 5753 5751 5749 5747 5745 5743 5741 5739 5737 5736 5734 5732 5729 5727 5723 5720 5717 5713 5710 5707 5703 5699 5696 5693 5689 5685 5681 5677 5674 5671 5668 5665 5663
5762 5762 5761 5760 5759 5757 5756 5755 5753 5751 5749 5748 5746 5744 5742 5740 5738 5736 5734 5732 5730 5728 5725 5722 5719 5716 5712 5709 5705 5702 5698 5694 5691 5687 5684 5679 5675 5671 5667 5664 5661 5658 5656
5760 5759 5759 5758 5756 5755 5754 5752 5750 5749 5747 5746 5744 5741 5739 5737 5735 5733 5731 5729 5726 5724 5721 5718 5715 5712 5708 5705 5701 5697 5693 5689 5686 5682 5678 5673 5669 5664 5661 5658 5655 5652 5649
5758 5757 5757 5755 5754 5753 5752 5750 5749 5747 5745 5744 5741 5739 5737 5735 5733 5730 5728 5725 5723 5720 5717 5714 5711 5708 5704 5701 5697 5693 5689 5685 5680 5676 5672 5667 5663 5659 5655 5652 5648 5645 5642
5756 5755 5754 5752 5752 5751 5750 5748 5747 5745 5744 5742 5740 5738 5736 5733 5731 5728 5725 5723 5720 5717 5714 5711 5707 5704 5700 5696 5692 5688 5684 5680 5675 5671 5666 5662 5658 5654 5649 5645 5642 5638 5635
5754 5753 5752 5751 5750 5749 5748 5747 5745 5744 5742 5740 5738 5736 5734 5731 5729 5726 5723 5720 5717 5714 5711 5707 5704 5700 5696 5692 5688 5683 5679 5674 5670 5666 5661 5657 5652 5648 5644 5639 5635 5632 5628
5752 5752 5750 5749 5748 5747 5746 5745 5744 5742 5740 5738 5736 5734 5732 5729 5726 5723 5720 5717 5714 5711 5708 5704 5701 5697 5692 5688 5683 5679 5674 5670 5665 5661 5656 5652 5647 5642 5638 5633 5629 5626 5622
5749 5749 5748 5747 5746 5745 5744 5743 5742 5740 5738 5736 5734 5732 5730 5727 5724 5721 5718 5715 5712 5708 5705 5701 5697 5693 5688 5684 5679 5675 5670 5665 5660 5656 5651 5646 5641 5636 5632 5628 5624 5620 5616
5747 5746 5746 5745 5744 5743 5742 5741 5739 5737 5736 5734 5732 5729 5727 5724 5721 5718 5715 5712 5709 5706 5702 5698 5694 5689 5685 5680 5676 5671 5666 5661 5656 5651 5646 5641 5636 5631 5626 5622 5618 5614 5610
5744 5744 5744 5743 5742 5741 5740 5738 5737 5735 5733 5732 5730 5727 5724 5721 5718 5715 5712 5709 5706 5703 5699 5695 5690 5686 5682 5677 5672 5667 5662 5657 5652 5646 5641 5636 5631 5626 5622 5617 5613 5609 5605
5742 5741 5741 5740 5739 5738 5737 5736 5735 5733 5731 5729 5727 5724 5722 5719 5716 5713 5710 5707 5703 5700 5696 5692 5687 5683 5678 5673 5668 5663 5658 5653 5648 5642 5637 5632 5627 5622 5618 5613 5609 5605 5601